Year,Month,Day,Hour,Minute,Value (Times are PST for temperature in C)
2018,09,28,00,00,13.10
2018,09,28,00,01,13.10
2018,09,28,00,02,13.00
2018,09,28,00,03,13.00
2018,09,28,00,04,13.00
2018,09,28,00,05,13.00
2018,09,28,00,06,13.00
2018,09,28,00,07,13.00
2018,09,28,00,08,13.00
2018,09,28,00,09,13.00
2018,09,28,00,10,12.90
2018,09,28,00,11,13.00
2018,09,28,00,12,12.90
2018,09,28,00,13,12.90
2018,09,28,00,14,12.90
2018,09,28,00,15,12.90
2018,09,28,00,16,12.90
2018,09,28,00,17,12.90
2018,09,28,00,18,13.00
2018,09,28,00,19,13.00
2018,09,28,00,20,13.00
2018,09,28,00,21,13.00
2018,09,28,00,22,13.00
2018,09,28,00,23,13.00
2018,09,28,00,24,13.00
2018,09,28,00,25,13.00
2018,09,28,00,26,13.00
2018,09,28,00,27,13.00
2018,09,28,00,28,13.00
2018,09,28,00,29,12.90
2018,09,28,00,30,12.90
2018,09,28,00,31,12.90
2018,09,28,00,32,13.00
2018,09,28,00,33,13.00
2018,09,28,00,34,13.00
2018,09,28,00,35,13.00
2018,09,28,00,36,12.90
2018,09,28,00,37,13.00
2018,09,28,00,38,12.90
2018,09,28,00,39,12.90
2018,09,28,00,40,12.90
2018,09,28,00,41,12.90
2018,09,28,00,42,12.90
2018,09,28,00,43,12.90
2018,09,28,00,44,12.90
2018,09,28,00,45,12.90
2018,09,28,00,46,12.90
2018,09,28,00,47,12.90
2018,09,28,00,48,12.90
2018,09,28,00,49,12.90
2018,09,28,00,50,12.90
2018,09,28,00,51,12.90
2018,09,28,00,52,12.90
2018,09,28,00,53,12.90
2018,09,28,00,54,12.90
2018,09,28,00,55,12.90
2018,09,28,00,56,12.90
2018,09,28,00,57,12.90
2018,09,28,00,58,12.90
2018,09,28,00,59,12.90
2018,09,28,01,00,12.90
2018,09,28,01,01,12.90
2018,09,28,01,02,12.80
2018,09,28,01,03,12.80
2018,09,28,01,04,12.80
2018,09,28,01,05,12.80
2018,09,28,01,06,12.80
2018,09,28,01,07,12.80
2018,09,28,01,08,12.80
2018,09,28,01,09,12.80
2018,09,28,01,10,12.80
2018,09,28,01,11,12.80
2018,09,28,01,12,12.80
2018,09,28,01,13,12.80
2018,09,28,01,14,12.80
2018,09,28,01,15,12.80
2018,09,28,01,16,12.80
2018,09,28,01,17,12.80
2018,09,28,01,18,12.80
2018,09,28,01,19,12.80
2018,09,28,01,20,12.80
2018,09,28,01,21,12.80
2018,09,28,01,22,12.80
2018,09,28,01,23,12.80
2018,09,28,01,24,12.80
2018,09,28,01,25,12.70
2018,09,28,01,26,12.70
2018,09,28,01,27,12.70
2018,09,28,01,28,12.80
2018,09,28,01,29,12.70
2018,09,28,01,30,12.80
2018,09,28,01,31,12.80
2018,09,28,01,32,12.80
2018,09,28,01,33,12.80
2018,09,28,01,34,12.80
2018,09,28,01,35,12.70
2018,09,28,01,36,12.70
2018,09,28,01,37,12.70
2018,09,28,01,38,12.70
2018,09,28,01,39,12.70
2018,09,28,01,40,12.70
2018,09,28,01,41,12.70
2018,09,28,01,42,12.70
2018,09,28,01,43,12.70
2018,09,28,01,44,12.80
2018,09,28,01,45,12.80
2018,09,28,01,46,12.80
2018,09,28,01,47,12.80
2018,09,28,01,48,12.80
2018,09,28,01,49,12.80
2018,09,28,01,50,12.70
2018,09,28,01,51,12.70
2018,09,28,01,52,12.70
2018,09,28,01,53,12.70
2018,09,28,01,54,12.70
2018,09,28,01,55,12.70
2018,09,28,01,56,12.70
2018,09,28,01,57,12.70
2018,09,28,01,58,12.70
2018,09,28,01,59,12.70
2018,09,28,02,00,12.70
2018,09,28,02,01,12.70
2018,09,28,02,02,12.70
2018,09,28,02,03,12.70
2018,09,28,02,04,12.70
2018,09,28,02,05,12.70
2018,09,28,02,06,12.70
2018,09,28,02,07,12.70
2018,09,28,02,08,12.70
2018,09,28,02,09,12.70
2018,09,28,02,10,12.70
2018,09,28,02,11,12.70
2018,09,28,02,12,12.70
2018,09,28,02,13,12.70
2018,09,28,02,14,12.70
2018,09,28,02,15,12.70
2018,09,28,02,16,12.70
2018,09,28,02,17,12.70
2018,09,28,02,18,12.70
2018,09,28,02,19,12.70
2018,09,28,02,20,12.70
2018,09,28,02,21,12.70
2018,09,28,02,22,12.70
2018,09,28,02,23,12.70
2018,09,28,02,24,12.70
2018,09,28,02,25,12.70
2018,09,28,02,26,12.70
2018,09,28,02,27,12.70
2018,09,28,02,28,12.70
2018,09,28,02,29,12.70
2018,09,28,02,30,12.60
2018,09,28,02,31,12.60
2018,09,28,02,32,12.60
2018,09,28,02,33,12.60
2018,09,28,02,34,12.70
2018,09,28,02,35,12.70
2018,09,28,02,36,12.70
2018,09,28,02,37,12.70
2018,09,28,02,38,12.70
2018,09,28,02,39,12.70
2018,09,28,02,40,12.70
2018,09,28,02,41,12.70
2018,09,28,02,42,12.70
2018,09,28,02,43,12.70
2018,09,28,02,44,12.70
2018,09,28,02,45,12.70
2018,09,28,02,46,12.70
2018,09,28,02,47,12.70
2018,09,28,02,48,12.70
2018,09,28,02,49,12.70
2018,09,28,02,50,12.70
2018,09,28,02,51,12.70
2018,09,28,02,52,12.70
2018,09,28,02,53,12.70
2018,09,28,02,54,12.70
2018,09,28,02,55,12.70
2018,09,28,02,56,12.70
2018,09,28,02,57,12.70
2018,09,28,02,58,12.70
2018,09,28,02,59,12.70
2018,09,28,03,00,12.70
2018,09,28,03,01,12.60
2018,09,28,03,02,12.60
2018,09,28,03,03,12.60
2018,09,28,03,04,12.60
2018,09,28,03,05,12.60
2018,09,28,03,06,12.60
2018,09,28,03,07,12.60
2018,09,28,03,08,12.60
2018,09,28,03,09,12.60
2018,09,28,03,10,12.60
2018,09,28,03,11,12.60
2018,09,28,03,12,12.60
2018,09,28,03,13,12.60
2018,09,28,03,14,12.60
2018,09,28,03,15,12.60
2018,09,28,03,16,12.50
2018,09,28,03,17,12.50
2018,09,28,03,18,12.50
2018,09,28,03,19,12.50
2018,09,28,03,20,12.50
2018,09,28,03,21,12.50
2018,09,28,03,22,12.50
2018,09,28,03,23,12.50
2018,09,28,03,24,12.50
2018,09,28,03,25,12.40
2018,09,28,03,26,12.40
2018,09,28,03,27,12.40
2018,09,28,03,28,12.50
2018,09,28,03,29,12.50
2018,09,28,03,30,12.40
2018,09,28,03,31,12.40
2018,09,28,03,32,12.40
2018,09,28,03,33,12.40
2018,09,28,03,34,12.40
2018,09,28,03,35,12.40
2018,09,28,03,36,12.40
2018,09,28,03,37,12.40
2018,09,28,03,38,12.40
2018,09,28,03,39,12.40
2018,09,28,03,40,12.40
2018,09,28,03,41,12.40
2018,09,28,03,42,12.40
2018,09,28,03,43,12.40
2018,09,28,03,44,12.40
2018,09,28,03,45,12.40
2018,09,28,03,46,12.40
2018,09,28,03,47,12.30
2018,09,28,03,48,12.30
2018,09,28,03,49,12.30
2018,09,28,03,50,12.30
2018,09,28,03,51,12.30
2018,09,28,03,52,12.30
2018,09,28,03,53,12.30
2018,09,28,03,54,12.30
2018,09,28,03,55,12.30
2018,09,28,03,56,12.30
2018,09,28,03,57,12.30
2018,09,28,03,58,12.30
2018,09,28,03,59,12.30
2018,09,28,04,00,12.30
2018,09,28,04,01,12.30
2018,09,28,04,02,12.30
2018,09,28,04,03,12.30
2018,09,28,04,04,12.30
2018,09,28,04,05,12.30
2018,09,28,04,06,12.30
2018,09,28,04,07,12.30
2018,09,28,04,08,12.30
2018,09,28,04,09,12.30
2018,09,28,04,10,12.30
2018,09,28,04,11,12.30
2018,09,28,04,12,12.30
2018,09,28,04,13,12.30
2018,09,28,04,14,12.30
2018,09,28,04,15,12.30
2018,09,28,04,16,12.20
2018,09,28,04,17,12.20
2018,09,28,04,18,12.20
2018,09,28,04,19,12.20
2018,09,28,04,20,12.20
2018,09,28,04,21,12.20
2018,09,28,04,22,12.20
2018,09,28,04,23,12.30
2018,09,28,04,24,12.20
2018,09,28,04,25,12.30
2018,09,28,04,26,12.30
2018,09,28,04,27,12.30
2018,09,28,04,28,12.30
2018,09,28,04,29,12.30
2018,09,28,04,30,12.30
2018,09,28,04,31,12.30
2018,09,28,04,32,12.30
2018,09,28,04,33,12.30
2018,09,28,04,34,12.30
2018,09,28,04,35,12.40
2018,09,28,04,36,12.40
2018,09,28,04,37,12.40
2018,09,28,04,38,12.40
2018,09,28,04,39,12.40
2018,09,28,04,40,12.40
2018,09,28,04,41,12.40
2018,09,28,04,42,12.40
2018,09,28,04,43,12.40
2018,09,28,04,44,12.50
2018,09,28,04,45,12.50
2018,09,28,04,46,12.50
2018,09,28,04,47,12.50
2018,09,28,04,48,12.50
2018,09,28,04,49,12.50
2018,09,28,04,50,12.50
2018,09,28,04,51,12.50
2018,09,28,04,52,12.50
2018,09,28,04,53,12.40
2018,09,28,04,54,12.40
2018,09,28,04,55,12.40
2018,09,28,04,56,12.40
2018,09,28,04,57,12.30
2018,09,28,04,58,12.30
2018,09,28,04,59,12.30
2018,09,28,05,00,12.30
2018,09,28,05,01,12.30
2018,09,28,05,02,12.30
2018,09,28,05,03,12.30
2018,09,28,05,04,12.30
2018,09,28,05,05,12.30
2018,09,28,05,06,12.30
2018,09,28,05,07,12.30
2018,09,28,05,08,12.30
2018,09,28,08,14,14.70
2018,09,28,08,15,14.80
2018,09,28,08,16,14.80
2018,09,28,08,17,14.90
2018,09,28,08,18,15.00
2018,09,28,08,19,15.10
2018,09,28,08,20,15.10
2018,09,28,08,21,15.20
2018,09,28,08,22,15.20
2018,09,28,08,23,15.30
2018,09,28,08,24,15.30
2018,09,28,08,25,15.30
2018,09,28,08,26,15.30
2018,09,28,08,27,15.30
2018,09,28,08,28,15.30
2018,09,28,08,29,15.30
2018,09,28,08,30,15.30
2018,09,28,08,31,15.30
2018,09,28,08,32,15.30
2018,09,28,08,33,15.30
2018,09,28,08,34,15.30
2018,09,28,08,35,15.30
2018,09,28,08,36,15.30
2018,09,28,08,37,15.40
2018,09,28,08,38,15.50
2018,09,28,08,39,15.50
2018,09,28,08,40,15.60
2018,09,28,08,41,15.70
2018,09,28,08,42,15.70
2018,09,28,08,43,15.80
2018,09,28,08,44,15.80
2018,09,28,08,45,15.90
2018,09,28,08,46,15.90
2018,09,28,08,47,16.00
2018,09,28,08,48,16.00
2018,09,28,08,49,16.00
2018,09,28,08,50,16.10
2018,09,28,08,51,16.10
2018,09,28,08,52,16.20
2018,09,28,08,53,16.20
2018,09,28,08,54,16.20
2018,09,28,08,55,16.20
2018,09,28,08,56,16.30
2018,09,28,08,57,16.30
2018,09,28,08,58,16.30
2018,09,28,08,59,16.30
2018,09,28,09,00,16.30
2018,09,28,09,01,16.30
2018,09,28,09,02,16.30
2018,09,28,09,03,16.30
2018,09,28,09,04,16.20
2018,09,28,09,05,16.20
2018,09,28,09,06,16.20
2018,09,28,09,07,16.20
2018,09,28,09,08,16.20
2018,09,28,09,09,16.20
2018,09,28,09,10,16.20
2018,09,28,09,11,16.20
2018,09,28,09,12,16.20
2018,09,28,09,13,16.20
2018,09,28,09,14,16.20
2018,09,28,09,15,16.30
2018,09,28,09,16,16.30
2018,09,28,09,17,16.30
2018,09,28,09,18,16.30
2018,09,28,09,19,16.30
2018,09,28,09,20,16.40
2018,09,28,09,21,16.50
2018,09,28,09,22,16.50
2018,09,28,09,23,16.60
2018,09,28,09,24,16.70
2018,09,28,09,25,16.70
2018,09,28,09,26,16.80
2018,09,28,09,27,16.90
2018,09,28,09,28,17.00
2018,09,28,09,29,17.00
2018,09,28,09,30,17.10
2018,09,28,09,31,17.20
2018,09,28,09,32,17.30
2018,09,28,09,33,17.40
2018,09,28,09,34,17.60
2018,09,28,09,35,17.80
2018,09,28,09,36,18.00
2018,09,28,09,37,18.20
2018,09,28,09,38,18.30
2018,09,28,09,39,18.50
2018,09,28,09,40,18.60
2018,09,28,09,41,18.80
2018,09,28,09,42,18.90
2018,09,28,09,43,19.10
2018,09,28,09,44,19.20
2018,09,28,09,45,19.20
2018,09,28,09,46,19.30
2018,09,28,09,47,19.30
2018,09,28,09,48,19.40
2018,09,28,09,49,19.40
2018,09,28,09,50,19.50
2018,09,28,09,51,19.50
2018,09,28,09,52,19.50
2018,09,28,09,53,19.50
2018,09,28,09,54,19.60
2018,09,28,09,55,19.60
2018,09,28,09,56,19.60
2018,09,28,09,57,19.60
2018,09,28,09,58,19.60
2018,09,28,09,59,19.60
2018,09,28,10,00,19.60
2018,09,28,10,01,19.60
2018,09,28,10,02,19.60
2018,09,28,10,03,19.70
2018,09,28,10,04,19.70
2018,09,28,10,05,19.70
2018,09,28,10,06,19.70
2018,09,28,10,07,19.70
2018,09,28,10,08,19.80
2018,09,28,10,09,19.80
2018,09,28,10,10,19.80
2018,09,28,10,11,19.80
2018,09,28,10,12,19.80
2018,09,28,10,13,19.80
2018,09,28,10,14,19.80
2018,09,28,10,15,19.80
2018,09,28,10,16,19.80
2018,09,28,10,17,19.80
2018,09,28,10,18,19.80
2018,09,28,10,19,19.80
2018,09,28,10,20,19.80
2018,09,28,10,21,19.80
2018,09,28,10,22,19.80
2018,09,28,10,23,19.80
2018,09,28,10,24,19.80
2018,09,28,10,25,19.80
2018,09,28,10,26,19.80
2018,09,28,10,27,19.80
2018,09,28,10,28,19.80
2018,09,28,10,29,19.80
2018,09,28,10,30,19.80
2018,09,28,10,31,19.80
2018,09,28,10,32,19.80
2018,09,28,10,33,19.80
2018,09,28,10,34,19.90
2018,09,28,10,35,19.90
2018,09,28,10,36,19.90
2018,09,28,10,37,19.90
2018,09,28,10,38,19.90
2018,09,28,10,39,19.90
2018,09,28,10,40,19.90
2018,09,28,10,41,19.90
2018,09,28,10,42,19.90
2018,09,28,10,43,19.90
2018,09,28,10,44,19.90
2018,09,28,10,45,19.90
2018,09,28,10,46,20.00
2018,09,28,10,47,20.00
2018,09,28,10,48,20.00
2018,09,28,10,49,20.00
2018,09,28,10,50,20.00
2018,09,28,10,51,20.00
2018,09,28,10,52,20.00
2018,09,28,10,53,20.00
2018,09,28,10,54,20.00
2018,09,28,10,55,20.00
2018,09,28,10,56,20.10
2018,09,28,10,57,20.10
2018,09,28,10,58,20.00
2018,09,28,10,59,20.10
2018,09,28,11,00,20.10
2018,09,28,11,01,20.10
2018,09,28,11,02,20.10
2018,09,28,11,03,20.10
2018,09,28,11,04,20.10
2018,09,28,11,05,20.10
2018,09,28,11,06,20.10
2018,09,28,11,07,20.10
2018,09,28,11,08,20.20
2018,09,28,11,09,20.20
2018,09,28,11,10,20.20
2018,09,28,11,11,20.20
2018,09,28,11,12,20.20
2018,09,28,11,13,20.20
2018,09,28,11,14,20.20
2018,09,28,11,15,20.20
2018,09,28,11,16,20.20
2018,09,28,11,17,20.20
2018,09,28,11,18,20.20
2018,09,28,11,19,20.20
2018,09,28,11,20,20.20
2018,09,28,11,21,20.20
2018,09,28,11,22,20.20
2018,09,28,11,23,20.30
2018,09,28,11,24,20.30
2018,09,28,11,25,20.30
2018,09,28,11,26,20.30
2018,09,28,11,27,20.30
2018,09,28,11,28,20.20
2018,09,28,11,29,20.30
2018,09,28,11,30,20.30
2018,09,28,11,31,20.30
2018,09,28,11,32,20.30
2018,09,28,11,33,20.30
2018,09,28,11,34,20.30
2018,09,28,11,35,20.40
2018,09,28,11,36,20.40
2018,09,28,11,37,20.30
2018,09,28,11,38,20.30
2018,09,28,11,39,20.30
2018,09,28,11,40,20.30
2018,09,28,11,41,20.30
2018,09,28,11,42,20.40
2018,09,28,11,43,20.30
2018,09,28,11,44,20.30
2018,09,28,11,45,20.40
2018,09,28,11,46,20.40
2018,09,28,11,47,20.40
2018,09,28,11,48,20.30
2018,09,28,11,49,20.30
2018,09,28,11,50,20.30
2018,09,28,11,51,20.40
2018,09,28,11,52,20.40
2018,09,28,11,53,20.40
2018,09,28,11,54,20.40
2018,09,28,11,55,20.50
2018,09,28,11,56,20.50
2018,09,28,11,57,20.50
2018,09,28,11,58,20.50
2018,09,28,11,59,20.50
2018,09,28,12,00,20.50
2018,09,28,12,01,20.50
2018,09,28,12,02,20.50
2018,09,28,12,03,20.60
2018,09,28,12,04,20.60
2018,09,28,12,05,20.60
2018,09,28,12,06,20.60
2018,09,28,12,07,20.60
2018,09,28,12,08,20.60
2018,09,28,12,09,20.60
2018,09,28,12,10,20.60
2018,09,28,12,11,20.60
2018,09,28,12,12,20.60
2018,09,28,12,13,20.50
2018,09,28,12,14,20.50
2018,09,28,12,15,20.50
2018,09,28,12,16,20.50
2018,09,28,12,17,20.50
2018,09,28,12,18,20.50
2018,09,28,12,19,20.50
2018,09,28,12,20,20.60
2018,09,28,12,21,20.60
2018,09,28,12,22,20.60
2018,09,28,12,23,20.60
2018,09,28,12,24,20.60
2018,09,28,12,25,20.60
2018,09,28,12,26,20.60
2018,09,28,12,27,20.60
2018,09,28,12,28,20.60
2018,09,28,12,29,20.60
2018,09,28,12,30,20.70
2018,09,28,12,31,20.70
2018,09,28,12,32,20.70
2018,09,28,12,33,20.70
2018,09,28,12,34,20.70
2018,09,28,12,35,20.70
2018,09,28,12,36,20.70
2018,09,28,12,37,20.70
2018,09,28,12,38,20.70
2018,09,28,12,39,20.70
2018,09,28,12,40,20.70
2018,09,28,12,41,20.80
2018,09,28,12,42,20.80
2018,09,28,12,43,20.80
2018,09,28,12,44,20.80
2018,09,28,12,45,20.80
2018,09,28,12,46,20.80
2018,09,28,12,47,20.90
2018,09,28,12,48,20.90
2018,09,28,12,49,20.90
2018,09,28,12,50,20.90
2018,09,28,12,51,20.90
2018,09,28,12,52,20.90
2018,09,28,12,53,20.90
2018,09,28,12,54,20.90
2018,09,28,12,55,20.90
2018,09,28,12,56,20.90
2018,09,28,12,57,20.90
2018,09,28,12,58,20.90
2018,09,28,12,59,20.90
2018,09,28,13,00,20.90
2018,09,28,13,01,20.90
2018,09,28,13,02,20.90
2018,09,28,13,03,21.00
2018,09,28,13,04,21.00
2018,09,28,13,05,21.00
2018,09,28,13,06,21.10
2018,09,28,13,07,21.10
2018,09,28,13,08,21.10
2018,09,28,13,09,21.10
2018,09,28,13,10,21.10
2018,09,28,13,11,21.10
2018,09,28,13,12,21.10
2018,09,28,13,13,21.10
2018,09,28,13,14,21.20
2018,09,28,13,15,21.20
2018,09,28,13,16,21.10
2018,09,28,13,17,21.20
2018,09,28,13,18,21.20
2018,09,28,13,19,21.20
2018,09,28,13,20,21.20
2018,09,28,13,21,21.20
2018,09,28,13,22,21.20
2018,09,28,13,23,21.20
2018,09,28,13,24,21.20
2018,09,28,13,25,21.20
2018,09,28,13,26,21.10
2018,09,28,13,27,21.10
2018,09,28,13,28,21.10
2018,09,28,13,29,21.00
2018,09,28,13,30,21.00
2018,09,28,13,31,20.90
2018,09,28,13,32,20.90
2018,09,28,13,33,20.90
2018,09,28,13,34,20.90
2018,09,28,13,35,20.90
2018,09,28,13,36,20.90
2018,09,28,13,37,20.90
2018,09,28,13,38,21.00
2018,09,28,13,39,21.10
2018,09,28,13,40,21.10
2018,09,28,13,41,21.10
2018,09,28,13,42,21.20
2018,09,28,13,43,21.20
2018,09,28,13,44,21.20
2018,09,28,13,45,21.10
2018,09,28,13,46,21.10
2018,09,28,13,47,21.10
2018,09,28,13,48,21.10
2018,09,28,13,49,21.10
2018,09,28,13,50,21.10
2018,09,28,13,51,21.20
2018,09,28,13,52,21.20
2018,09,28,13,53,21.20
2018,09,28,13,54,21.20
2018,09,28,13,55,21.20
2018,09,28,13,56,21.20
2018,09,28,13,57,21.20
2018,09,28,13,58,21.20
2018,09,28,13,59,21.20
2018,09,28,14,00,21.20
2018,09,28,14,01,21.20
2018,09,28,14,02,21.30
2018,09,28,14,03,21.30
2018,09,28,14,04,21.30
2018,09,28,14,05,21.30
2018,09,28,14,06,21.30
2018,09,28,14,07,21.30
2018,09,28,14,08,21.30
2018,09,28,14,09,21.30
2018,09,28,14,10,21.30
2018,09,28,14,11,21.30
2018,09,28,14,12,21.30
2018,09,28,14,13,21.40
2018,09,28,14,14,21.40
2018,09,28,14,15,21.40
2018,09,28,14,16,21.40
2018,09,28,14,17,21.30
2018,09,28,14,18,21.30
2018,09,28,14,19,21.40
2018,09,28,14,20,21.40
2018,09,28,14,21,21.40
2018,09,28,14,22,21.40
2018,09,28,14,23,21.40
2018,09,28,14,24,21.40
2018,09,28,14,25,21.40
2018,09,28,14,26,21.40
2018,09,28,14,27,21.40
2018,09,28,14,28,21.40
2018,09,28,14,29,21.40
2018,09,28,14,30,21.40
2018,09,28,14,31,21.40
2018,09,28,14,32,21.40
2018,09,28,14,33,21.40
2018,09,28,14,34,21.50
2018,09,28,14,35,21.50
2018,09,28,14,36,21.50
2018,09,28,14,37,21.50
2018,09,28,14,38,21.60
2018,09,28,14,39,21.60
2018,09,28,14,40,21.60
2018,09,28,14,41,21.60
2018,09,28,14,42,21.60
2018,09,28,14,43,21.60
2018,09,28,14,44,21.70
2018,09,28,14,45,21.70
2018,09,28,14,46,21.70
2018,09,28,14,47,21.70
2018,09,28,14,48,21.70
2018,09,28,14,49,21.70
2018,09,28,14,50,21.80
2018,09,28,14,51,21.80
2018,09,28,14,52,21.80
2018,09,28,14,53,21.80
2018,09,28,14,54,21.80
2018,09,28,14,55,21.80
2018,09,28,14,56,21.80
2018,09,28,14,57,21.90
2018,09,28,14,58,21.80
2018,09,28,14,59,21.80
2018,09,28,15,00,21.90
2018,09,28,15,01,21.90
2018,09,28,15,02,21.90
2018,09,28,15,03,21.90
2018,09,28,15,04,21.90
2018,09,28,15,05,21.90
2018,09,28,15,06,21.90
2018,09,28,15,07,21.90
2018,09,28,15,08,21.90
2018,09,28,15,09,21.90
2018,09,28,15,10,21.90
2018,09,28,15,11,21.90
2018,09,28,15,12,21.90
2018,09,28,15,13,21.90
2018,09,28,15,14,21.90
2018,09,28,15,15,21.90
2018,09,28,15,16,21.90
2018,09,28,15,17,21.90
2018,09,28,15,18,21.90
2018,09,28,15,19,21.90
2018,09,28,15,20,21.90
2018,09,28,15,21,21.90
2018,09,28,15,22,21.90
2018,09,28,15,23,21.90
2018,09,28,15,24,21.90
2018,09,28,15,25,22.00
2018,09,28,15,26,22.00
2018,09,28,15,27,22.10
2018,09,28,15,28,22.10
2018,09,28,15,29,22.10
2018,09,28,15,30,22.20
2018,09,28,15,31,22.20
2018,09,28,15,32,22.20
2018,09,28,15,33,22.20
2018,09,28,15,34,22.20
2018,09,28,15,35,22.20
2018,09,28,15,36,22.20
2018,09,28,15,37,22.20
2018,09,28,15,38,22.20
2018,09,28,15,39,22.20
2018,09,28,15,40,22.20
2018,09,28,15,41,22.20
2018,09,28,15,42,22.30
2018,09,28,15,43,22.30
2018,09,28,15,44,22.30
2018,09,28,15,45,22.30
2018,09,28,15,46,22.40
2018,09,28,15,47,22.40
2018,09,28,15,48,22.40
2018,09,28,15,49,22.40
2018,09,28,15,50,22.40
2018,09,28,15,51,22.40
2018,09,28,15,52,22.40
2018,09,28,15,53,22.40
2018,09,28,15,54,22.50
2018,09,28,15,55,22.50
2018,09,28,15,56,22.60
2018,09,28,15,57,22.60
2018,09,28,15,58,22.60
2018,09,28,15,59,22.60
2018,09,28,16,00,22.60
2018,09,28,16,01,22.50
2018,09,28,16,02,22.50
2018,09,28,16,03,22.50
2018,09,28,16,04,22.50
2018,09,28,16,05,22.50
2018,09,28,16,06,22.50
2018,09,28,16,07,22.50
2018,09,28,16,08,22.40
2018,09,28,16,09,22.40
2018,09,28,16,10,22.40
2018,09,28,16,11,22.40
2018,09,28,16,12,22.40
2018,09,28,16,13,22.40
2018,09,28,16,14,22.40
2018,09,28,16,15,22.40
2018,09,28,16,16,22.40
2018,09,28,16,17,22.50
2018,09,28,16,18,22.50
2018,09,28,16,19,22.60
2018,09,28,16,20,22.60
2018,09,28,16,21,22.60
2018,09,28,16,22,22.70
2018,09,28,16,23,22.70
2018,09,28,16,24,22.70
2018,09,28,16,25,22.70
2018,09,28,16,26,22.70
2018,09,28,16,27,22.70
2018,09,28,16,28,22.70
2018,09,28,16,29,22.80
2018,09,28,16,30,22.80
2018,09,28,16,31,22.80
2018,09,28,16,32,22.90
2018,09,28,16,33,22.90
2018,09,28,16,34,22.90
2018,09,28,16,35,22.90
2018,09,28,16,36,22.90
2018,09,28,16,37,22.90
2018,09,28,16,38,22.90
2018,09,28,16,39,22.90
2018,09,28,16,40,22.90
2018,09,28,16,41,22.90
2018,09,28,16,42,22.90
2018,09,28,16,43,22.90
2018,09,28,16,44,22.90
2018,09,28,16,45,22.90
2018,09,28,16,46,22.80
2018,09,28,16,47,22.80
2018,09,28,16,48,22.80
2018,09,28,16,49,22.80
2018,09,28,16,50,22.80
2018,09,28,16,51,22.80
2018,09,28,16,52,22.80
2018,09,28,16,53,22.80
2018,09,28,16,54,22.80
2018,09,28,16,55,22.80
2018,09,28,16,56,22.90
2018,09,28,16,57,22.90
2018,09,28,16,58,22.90
2018,09,28,16,59,22.90
2018,09,28,17,00,22.90
2018,09,28,17,01,22.90
2018,09,28,17,02,22.90
2018,09,28,17,03,22.90
2018,09,28,17,04,22.90
2018,09,28,17,05,22.90
2018,09,28,17,06,22.90
2018,09,28,17,07,22.90
2018,09,28,17,08,22.90
2018,09,28,17,09,22.90
2018,09,28,17,10,22.90
2018,09,28,17,11,22.90
2018,09,28,17,12,22.90
2018,09,28,17,13,22.90
2018,09,28,17,14,22.90
2018,09,28,17,15,22.90
2018,09,28,17,16,22.90
2018,09,28,17,17,22.80
2018,09,28,17,18,22.80
2018,09,28,17,19,22.80
2018,09,28,17,20,22.90
2018,09,28,17,21,22.90
2018,09,28,17,22,22.90
2018,09,28,17,23,22.80
2018,09,28,17,24,22.60
2018,09,28,17,25,22.20
2018,09,28,17,26,21.80
2018,09,28,17,27,21.40
2018,09,28,17,28,20.90
2018,09,28,17,29,20.60
2018,09,28,17,30,20.20
2018,09,28,17,31,19.80
2018,09,28,17,32,19.60
2018,09,28,17,33,19.30
2018,09,28,17,34,19.10
2018,09,28,17,35,19.00
2018,09,28,17,36,18.80
2018,09,28,17,37,18.70
2018,09,28,17,38,18.60
2018,09,28,17,39,18.50
2018,09,28,17,40,18.50
2018,09,28,17,41,18.40
2018,09,28,17,42,18.40
2018,09,28,17,43,18.40
2018,09,28,17,44,18.30
2018,09,28,17,45,18.30
2018,09,28,17,46,18.30
2018,09,28,17,47,18.30
2018,09,28,17,48,18.20
2018,09,28,17,49,18.20
2018,09,28,17,50,18.10
2018,09,28,17,51,18.10
2018,09,28,17,52,18.00
2018,09,28,17,53,17.90
2018,09,28,17,54,17.90
2018,09,28,17,55,17.80
2018,09,28,17,56,17.80
2018,09,28,17,57,17.80
2018,09,28,17,58,17.80
2018,09,28,17,59,17.80
2018,09,28,18,00,17.80
2018,09,28,18,01,17.80
2018,09,28,18,02,17.80
2018,09,28,18,03,17.80
2018,09,28,18,04,17.90
2018,09,28,18,05,17.90
2018,09,28,18,06,17.90
2018,09,28,18,07,17.90
2018,09,28,18,08,17.90
2018,09,28,18,09,17.90
2018,09,28,18,10,17.90
2018,09,28,18,11,17.90
2018,09,28,18,12,17.90
2018,09,28,18,13,17.90
2018,09,28,18,14,17.80
2018,09,28,18,15,17.80
2018,09,28,18,16,17.80
2018,09,28,18,17,17.80
2018,09,28,18,18,17.80
2018,09,28,18,19,17.80
2018,09,28,18,20,17.80
2018,09,28,18,21,17.80
2018,09,28,18,22,17.80
2018,09,28,18,23,17.80
2018,09,28,18,24,17.80
2018,09,28,18,25,17.80
2018,09,28,18,26,17.70
2018,09,28,18,27,17.70
2018,09,28,18,28,17.70
2018,09,28,18,29,17.70
2018,09,28,18,30,17.70
2018,09,28,18,31,17.70
2018,09,28,18,32,17.70
2018,09,28,18,33,17.70
2018,09,28,18,34,17.70
2018,09,28,18,35,17.70
2018,09,28,18,36,17.70
2018,09,28,18,37,17.70
2018,09,28,18,38,17.70
2018,09,28,18,39,17.70
2018,09,28,18,40,17.70
2018,09,28,18,41,17.70
2018,09,28,18,42,17.70
2018,09,28,18,43,17.70
2018,09,28,18,44,17.70
2018,09,28,18,45,17.70
2018,09,28,18,46,17.60
2018,09,28,18,47,17.60
2018,09,28,18,48,17.60
2018,09,28,18,49,17.60
2018,09,28,18,50,17.50
2018,09,28,18,51,17.50
2018,09,28,18,52,17.50
2018,09,28,18,53,17.50
2018,09,28,18,54,17.40
2018,09,28,18,55,17.40
2018,09,28,18,56,17.40
2018,09,28,18,57,17.40
2018,09,28,18,58,17.30
2018,09,28,18,59,17.30
2018,09,28,19,00,17.30
2018,09,28,19,01,17.20
2018,09,28,19,02,17.20
2018,09,28,19,03,17.20
2018,09,28,19,04,17.10
2018,09,28,19,05,17.10
2018,09,28,19,06,17.10
2018,09,28,19,07,17.00
2018,09,28,19,08,17.00
2018,09,28,19,09,16.90
2018,09,28,19,10,16.90
2018,09,28,19,11,16.90
2018,09,28,19,12,16.80
2018,09,28,19,13,16.80
2018,09,28,19,14,16.80
2018,09,28,19,15,16.80
2018,09,28,19,16,16.70
2018,09,28,19,17,16.70
2018,09,28,19,18,16.70
2018,09,28,19,19,16.70
2018,09,28,19,20,16.70
2018,09,28,19,21,16.60
2018,09,28,19,22,16.60
2018,09,28,19,23,16.50
2018,09,28,19,24,16.50
2018,09,28,19,25,16.40
2018,09,28,19,26,16.40
2018,09,28,19,27,16.40
2018,09,28,19,28,16.30
2018,09,28,19,29,16.30
2018,09,28,19,30,16.30
2018,09,28,19,31,16.20
2018,09,28,19,32,16.20
2018,09,28,19,33,16.20
2018,09,28,19,34,16.20
2018,09,28,19,35,16.10
2018,09,28,19,36,16.10
2018,09,28,19,37,16.10
2018,09,28,19,38,16.00
2018,09,28,19,39,16.00
2018,09,28,19,40,16.00
2018,09,28,19,41,15.90
2018,09,28,19,42,15.90
2018,09,28,19,43,15.90
2018,09,28,19,44,15.90
2018,09,28,19,45,15.80
2018,09,28,19,46,15.80
2018,09,28,19,47,15.80
2018,09,28,19,48,15.80
2018,09,28,19,49,15.80
2018,09,28,19,50,15.70
2018,09,28,19,51,15.70
2018,09,28,19,52,15.70
2018,09,28,19,53,15.70
2018,09,28,19,54,15.70
2018,09,28,19,55,15.60
2018,09,28,19,56,15.60
2018,09,28,19,57,15.60
2018,09,28,19,58,15.50
2018,09,28,19,59,15.50
2018,09,28,20,00,15.50
2018,09,28,20,01,15.40
2018,09,28,20,02,15.40
2018,09,28,20,03,15.40
2018,09,28,20,04,15.40
2018,09,28,20,05,15.30
2018,09,28,20,06,15.30
2018,09,28,20,07,15.30
2018,09,28,20,08,15.30
2018,09,28,20,09,15.30
2018,09,28,20,10,15.20
2018,09,28,20,11,15.20
2018,09,28,20,12,15.20
2018,09,28,20,13,15.20
2018,09,28,20,14,15.20
2018,09,28,20,15,15.20
2018,09,28,20,16,15.20
2018,09,28,20,17,15.20
2018,09,28,20,18,15.20
2018,09,28,20,19,15.20
2018,09,28,20,20,15.10
2018,09,28,20,21,15.10
2018,09,28,20,22,15.10
2018,09,28,20,23,15.10
2018,09,28,20,24,15.10